Regional Weather Roundup
Issued by NWS

Home | Current Version | Previous Version | Graphics & Text | Print | Product List | Glossary On
Versions: 1 2 3 4 5 6 7 8 9 10 11 12 13 14 15 16 17 18 19 20 21 22 23 24 25 26 27 28 29 30 31 32 33 34 35 36 37 38 39 40 41 42 43 44 45 46 47 48 49 50
000
ASUS43 KDTX 300810
RWRMI
MICHIGAN HOURLY REGIONAL WEATHER ROUNDUP
NATIONAL WEATHER SERVICE DETROIT/PONTIAC MI
400 AM EDT WED JUL 30 2014

NOTE: "FAIR" INDICATES FEW OR NO CLOUDS BELOW 12,000 FEET WITH NO
SIGNIFICANT WEATHER AND/OR OBSTRUCTION TO VISIBILITY.

MIZ047>049-052>055-059>063-066>070-074>076-081>083-300900-
SOUTHEAST LOWER MICHIGAN

CITY           SKY/WX    TMP DP  RH WIND       PRES   REMARKS
ADRIAN         MOCLDY    57  55  93 NW3       29.99F
ALMA           CLEAR     53  52  96 CALM      29.97S FOG
ANN ARBOR      MOCLDY    58  54  86 W7        29.97S
BAD AXE        CLOUDY    53  53 100 CALM      29.95S
DETROIT CITY   PTCLDY    62  56  80 W5        29.96R
DETROIT        CLOUDY    59  56  89 W9        29.97S
FLINT          PTCLDY    57  54  89 SW5       29.96S
GROSSE ILE     MOCLDY    61  57  88 W5        29.96R
HILLSDALE      MOCLDY    59  58  96 CALM      29.99F
HOWELL         PTCLDY    54  53  97 W5        29.98S

CITY           SKY/WX    TMP DP  RH WIND       PRES   REMARKS
JACKSON        PTCLDY    57  54  89 CALM      29.99S
LAMBERTVILLE   MOCLDY    59  55  88 CALM      29.98F
LANSING        PTCLDY    56  54  93 W3        29.98S
LAPEER         NOT AVBL
MASON          PTCLDY    54  52  94 CALM      29.98S
MONROE         MOCLDY    57  55  94 CALM      29.96S
MT. CLEMENS    PTCLDY    58  57  99 SW2       29.94F FOG
PONTIAC        PTCLDY    58  55  90 W7        29.96R
PORT HOPE        N/A     57  55  93 W3        29.92S
PORT HURON     PTCLDY    54  54 100 CALM      29.95S FOG
TRI CITIES     PTCLDY    56  54  93 W3        29.97S
YPSILANTI      MOCLDY    62  56  80 W6        29.97S
$$
MIZ043>046-050>051-056>058-064>065-071>073-077>080-300900-
SOUTHWEST LOWER MICHIGAN

CITY           SKY/WX    TMP DP  RH WIND       PRES   REMARKS
BATTLE CREEK   PTCLDY    59  55  87 W3        29.99S
BENTON HARBOR  CLEAR     56  55  97 CALM      29.99R
BIG RAPIDS     PTCLDY    54  54 100 CALM      29.97S
COLDWATER      MOCLDY    59  57  93 CALM      29.99S
HOLLAND        CLEAR     57  54  89 SW3       29.99S
GRAND RAPIDS   CLEAR     58  57  97 W7        29.98S
KALAMAZOO      CLEAR     60  57  89 CALM      29.98F
MARSHALL       PTCLDY    53  53  97 CALM      29.98S
MUSKEGON       CLEAR     54  51  90 S3        29.97F
$$
MIZ016>042-300900-
NORTHERN LOWER MICHIGAN

CITY           SKY/WX    TMP DP  RH WIND       PRES   REMARKS
ALPENA         CLEAR     51  50  96 W3        29.94S
BEAVER ISLAND  MOCLDY    55  55 100 W6        29.97S
BELLAIRE       CLOUDY    50  49  96 CALM      29.97S FOG
CADILLAC       MOCLDY    54  53  99 CALM      29.97S
CHARLEVOIX     CLEAR     58  55  90 NW3       29.99F
FRANKFORT      PTSUNNY   55  52  91 CALM      29.97S FOG
GAYLORD        CLEAR     51  50  96 CALM      29.96F
GRAYLING       FOG       54  54 100 CALM      29.97F VSB 1/4
HARBOR SPRINGS CLEAR     53  50  90 CALM      29.96S
HOUGHTON LAKE  CLOUDY    55  54  96 NW6       29.97F
MANISTEE       MOCLDY    54  52  94 CALM      29.98S
OSCODA         PTCLDY    53  52  97 CALM      29.93S
PELLSTON       CLEAR     49  47  93 NW3       29.96S
TRAVERSE CITY  CLEAR     54  52  93 CALM      29.96F
$$
MIZ007>008-015-300900-
EASTERN UPPER MICHIGAN

CITY           SKY/WX    TMP DP  RH WIND       PRES   REMARKS
KINROSS        CLOUDY    50  50 100 N6        29.96S VSB 1/4
MACKINAC ISLAN CLEAR     49  49  99 N6        29.95S
NEWBERRY       FOG       50  50  99 NW6       29.97R VSB 3/4
S. S. MARIE    MOCLDY    49  47  93 NW7       29.95S
$$
MIZ004>006-011>014-085-300900-
CENTRAL UPPER MICHIGAN

CITY           SKY/WX    TMP DP  RH WIND       PRES   REMARKS
MANISTIQUE     FOG       50  50 100 CALM      29.97F VSB 1/2
ESCANABA       PTCLDY    50  46  87 W5        29.99S
MENOMINEE      CLEAR     55  54  94 MISG      29.99F
SAWYER-GWINN   CLEAR     49  48  95 N5        30.00S
$$
MIZ001>003-009>011-084-300900-
WESTERN UPPER MICHIGAN

CITY           SKY/WX    TMP DP  RH WIND       PRES   REMARKS
IRON MOUNTAIN  CLEAR     48  47  96 NW3       30.00F
HOUGHTON       CLEAR     48  44  86 NW5       30.02F
COPPER HARBOR    N/A     50  46  86 NW3       30.01S
$$

ABBREVIATIONS USED IN REMARKS
   TC - TEMPERATURE IN CELSIUS
  WCI - WIND CHILL INDEX
   HX - HEAT INDEX
  VSB - VISIBILITY



USA.gov is the U.S. government's official web portal to all federal, state and local government web resources and services.